カタログに戻る

STARLINK-36365

運用中通信SSO
NORAD 67666·PAYLOAD·🇺🇸 United States

打ち上げ Feb 2, 2026 から Vandenberg Space Force Base

Loading…

次のパス (今後24時間)

TLE

最新Source: CelesTrak SupGP

元期: Sep 14, 2026, 21:22 UTC

1 67666C 26022U   26257.89076389 -.00021174  00000+0 -65655-3 0  2578
2 67666  97.2842 289.4870 0001568  86.9592 296.2724 15.33484767    13

AllMySatでSTARLINK-36365をリアルタイム追跡

Download on the App Store